Regional Weather Roundup
Issued by NWS

Home | Current Version | Previous Version | Text Only | Print | Product List | Glossary Off
Versions: 1 2 3 4 5 6 7 8 9 10 11 12 13 14 15 16 17 18 19 20 21 22 23 24 25 26 27 28 29 30 31 32 33 34 35 36 37 38 39 40 41 42 43 44 45 46 47 48 49 50

215
ASUS44 KLIX 290401
RWRLA
LOUISIANA WEATHER ROUNDUP
NATIONAL WEATHER SERVICE NEW ORLEANS LA
1000 PM CST FRI NOV 28 2014

NOTE: "FAIR" INDICATES FEW OR NO CLOUDS BELOW 12,000 FEET WITH NO
      SIGNIFICANT WEATHER AND/OR OBSTRUCTIONS TO VISIBILITY.
      SKY/WX - SKY CONDITION AND SIGNIFICANT WEATHER.
      TMP - AIR TEMPERATURE.    DP   - DEWPOINT TEMPERATURE.
      RH  - RELATIVE HUMIDITY.  PRES - PRESSURE.
      HX  - HEAT INDEX.         WCI  - WIND CHILL INDEX.

*  THESE STATIONS ARE NOT NWS OR FAA STATIONS AND ARE NOT UNDER
   NWS QUALITY CONTROL.

LAZ040-048-061>063-065-066-069-290500-
SOUTHEAST LOUISIANA

CITY           SKY/WX    TMP DP  RH WIND       PRES   REMARKS
N.O. AUDUBON     N/A     50  47  89 MISG        N/A
N.O. INTL ARPT CLEAR     48  43  82 SE5       30.27F
N.O. LAKEFRONT CLEAR     50  44  80 SE8       30.28F
N.O. DOWNTOWN* FAIR      54  43  66 E3        30.28F
SLIDELL        CLEAR     40  36  86 CALM      30.27F
BATON ROUGE    CLEAR     49  43  80 SE9       30.24F
BOOTHVILLE     CLEAR     53  50  89 E5        30.28F
BELLE CHASSE   PTCLDY    43  39  86 CALM      30.28F
BOGALUSA*        N/A     43  38  84 S3        30.27F
NEW ROADS*     NOT AVBL
GONZALES*      NOT AVBL
HAMMOND*       NOT AVBL
HOUMA*         CLEAR     45  44  97 E5        30.27F
PORT FOURCHON* CLOUDY    61  54  77 SE7       30.30F

$$

LAZ041-044-053-054-290500-
SOUTHWEST LOUISIANA

CITY           SKY/WX    TMP DP  RH WIND       PRES   REMARKS
LAKE CHARLES   CLEAR     52  51  97 SE7       30.19F FOG
LAFAYETTE      CLEAR     53  48  83 S6        30.23F
PATTERSON      CLEAR     50  46  87 SE7       30.27F
SALT POINT       N/A     56  50  80 SE7       30.24F
NEW IBERIA     CLEAR     51  47  86 SE9       30.23F
CHENAULT AIRPK PTCLDY    53  52  99 SE7       30.20F

$$

LAZ027-028-290500-
CENTRAL LOUISIANA

CITY           SKY/WX    TMP DP  RH WIND       PRES   REMARKS
FORT POLK      CLOUDY    54  52  92 S14       30.17S
ALEXANDRIA INT CLEAR     52  49  89 S9        30.18F
ALEXANDRIA     CLEAR     52  48  86 S7        30.19F

$$

LAZ001-002-290500-
NORTHWEST LOUISIANA

CITY           SKY/WX    TMP DP  RH WIND       PRES   REMARKS
SHREVEPORT     PTCLDY    55  51  86 S10       30.09F
BARKSDALE AFB  CLEAR     54  49  85 S12       30.10F
DTN SHREVEPORT CLEAR     55  49  80 S10       30.09F

$$

LAZ014-016-290500-
NORTHEAST LOUISIANA

CITY           SKY/WX    TMP DP  RH WIND       PRES   REMARKS
MONROE         CLEAR     49  40  71 S8        30.16F
TALLULAH       CLEAR     46  34  62 S10       30.20F

$$




USA.gov is the U.S. government's official web portal to all federal, state and local government web resources and services.